When you browse on this site, cookies collect data to enhance your experience and personalize the content and advertising you see.
Visit our Privacy Policy to learn more. By continuing to use the site, you agree to this use of cookies and data.
  • In Sweden
  • List of Countries
  • For 7 days
  • Water Temperature
  • Satellite Maps
  • Weather Map
  • Weather Widgets
  • user-avatar
    Login

    Hourly Weather Onokivtsi

    Today, 20 June, Thursday

    Time Temperature Precipitation Wind Pressure Humidity
    00:00 +21°C° 0.2 mm 1 mps 742 mmHg 89%
    01:00 +20°C° 0 mm 1 mps 742 mmHg 90%
    02:00 +20°C° 0.1 mm 1 mps 742 mmHg 90%
    03:00 +20°C° 0.1 mm 1 mps 742 mmHg 90%
    04:00 +19°C° 0.1 mm 1 mps 742 mmHg 91%
    05:00 +21°C° 0 mm 1 mps 742 mmHg 86%
    06:00 +23°C° 0 mm 1 mps 742 mmHg 82%
    07:00 +24°C° 0 mm 1 mps 743 mmHg 77%
    08:00 +25°C° 0 mm 1 mps 742 mmHg 72%
    09:00 +27°C° 0 mm 2 mps 742 mmHg 66%
    10:00 +28°C° 0 mm 2 mps 742 mmHg 60%
    11:00 +28°C° 0 mm 2 mps 742 mmHg 58%
    12:00 +29°C° 0 mm 2 mps 742 mmHg 57%
    13:00 +30°C° 0 mm 2 mps 742 mmHg 55%
    14:00 +30°C° 0 mm 2 mps 742 mmHg 56%
    15:00 +29°C° 0 mm 2 mps 741 mmHg 56%
    16:00 +29°C° 0 mm 1 mps 741 mmHg 57%
    17:00 +28°C° 0.2 mm 1 mps 741 mmHg 64%
    18:00 +26°C° 0.2 mm 1 mps 741 mmHg 71%
    19:00 +23°C° 0.2 mm 0 mps 741 mmHg 79%
    20:00 +24°C° 0.4 mm 1 mps 741 mmHg 81%
    21:00 +23°C° 0.4 mm 1 mps 742 mmHg 84%
    22:00 +22°C° 0.4 mm 1 mps 742 mmHg 86%
    23:00 +21°C° 1.3 mm 1 mps 742 mmHg 88%

    Tomorrow, 21 June, Friday

    Time Temperature Precipitation Wind Pressure Humidity
    00:00 +21°C° 1.3 mm 1 mps 742 mmHg 89%
    01:00 +20°C° 1.3 mm 1 mps 742 mmHg 91%
    02:00 +20°C° 0.1 mm 1 mps 742 mmHg 91%
    03:00 +20°C° 0.1 mm 1 mps 742 mmHg 92%
    04:00 +20°C° 0.1 mm 1 mps 742 mmHg 92%
    05:00 +21°C° 0 mm 1 mps 742 mmHg 89%
    06:00 +23°C° 0 mm 1 mps 743 mmHg 87%
    07:00 +24°C° 0 mm 1 mps 743 mmHg 84%
    08:00 +25°C° 1 mm 1 mps 743 mmHg 82%
    09:00 +26°C° 1 mm 1 mps 743 mmHg 79%
    10:00 +27°C° 1 mm 2 mps 743 mmHg 77%
    11:00 +27°C° 1 mm 2 mps 743 mmHg 75%
    12:00 +27°C° 1 mm 2 mps 743 mmHg 73%
    13:00 +28°C° 1 mm 3 mps 743 mmHg 71%
    14:00 +28°C° 1.5 mm 2 mps 743 mmHg 73%
    15:00 +27°C° 1.5 mm 2 mps 742 mmHg 76%
    16:00 +27°C° 1.5 mm 1 mps 742 mmHg 79%
    17:00 +26°C° 0.4 mm 1 mps 742 mmHg 80%
    18:00 +25°C° 0.4 mm 1 mps 742 mmHg 82%
    19:00 +22°C° 0.4 mm 0 mps 743 mmHg 83%
    20:00 +21°C° 0 mm 0 mps 743 mmHg 85%
    21:00 +22°C° 0 mm 1 mps 743 mmHg 87%
    22:00 +21°C° 0 mm 1 mps 743 mmHg 89%
    23:00 +21°C° 0 mm 1 mps 743 mmHg 90%

    Day after tomorrow, 22 June, Saturday

    Time Temperature Precipitation Wind Pressure Humidity
    00:00 +20°C° 0 mm 1 mps 743 mmHg 90%
    01:00 +20°C° 0 mm 1 mps 744 mmHg 91%
    02:00 +20°C° 0 mm 1 mps 744 mmHg 91%
    03:00 +19°C° 0 mm 1 mps 744 mmHg 92%
    04:00 +19°C° 0 mm 1 mps 744 mmHg 92%
    05:00 +21°C° 0 mm 1 mps 744 mmHg 88%
    06:00 +23°C° 0 mm 1 mps 744 mmHg 83%
    07:00 +24°C° 0 mm 1 mps 745 mmHg 79%
    08:00 +26°C° 0 mm 1 mps 744 mmHg 73%
    09:00 +27°C° 0 mm 1 mps 744 mmHg 67%
    10:00 +29°C° 0 mm 1 mps 744 mmHg 62%
    11:00 +29°C° 0.3 mm 1 mps 744 mmHg 63%
    12:00 +29°C° 0.3 mm 1 mps 744 mmHg 64%
    13:00 +29°C° 0.3 mm 1 mps 744 mmHg 64%
    14:00 +29°C° 0.8 mm 1 mps 744 mmHg 67%
    15:00 +28°C° 0.8 mm 1 mps 744 mmHg 70%
    16:00 +28°C° 0.8 mm 1 mps 743 mmHg 73%
    17:00 +27°C° 0.5 mm 1 mps 744 mmHg 78%
    18:00 +25°C° 0.5 mm 1 mps 744 mmHg 82%
    19:00 +24°C° 0.5 mm 2 mps 744 mmHg 87%
    20:00 +23°C° 0.1 mm 2 mps 744 mmHg 89%
    21:00 +21°C° 0.1 mm 2 mps 744 mmHg 90%
    22:00 +20°C° 0.1 mm 2 mps 743 mmHg 92%
    23:00 +19°C° 0 mm 2 mps 743 mmHg 92%

    23 June, Sunday

    Time Temperature Precipitation Wind Pressure Humidity
    00:00 +19°C° 0 mm 2 mps 743 mmHg 93%
    01:00 +19°C° 0 mm 2 mps 743 mmHg 93%
    02:00 +18°C° 0 mm 2 mps 743 mmHg 93%
    03:00 +18°C° 0 mm 2 mps 743 mmHg 94%
    04:00 +18°C° 0 mm 2 mps 743 mmHg 94%
    05:00 +21°C° 0 mm 1 mps 743 mmHg 90%
    06:00 +22°C° 0 mm 1 mps 743 mmHg 86%
    07:00 +24°C° 0 mm 1 mps 744 mmHg 81%
    08:00 +25°C° 1 mm 2 mps 744 mmHg 80%
    09:00 +26°C° 1 mm 2 mps 744 mmHg 78%
    10:00 +27°C° 1 mm 2 mps 744 mmHg 76%
    11:00 +28°C° 0.7 mm 2 mps 744 mmHg 72%
    12:00 +28°C° 0.7 mm 3 mps 744 mmHg 68%
    13:00 +29°C° 0.7 mm 3 mps 744 mmHg 64%
    14:00 +28°C° 0.3 mm 3 mps 744 mmHg 66%
    15:00 +28°C° 0.3 mm 4 mps 744 mmHg 68%
    16:00 +27°C° 0.3 mm 4 mps 744 mmHg 69%
    17:00 +26°C° 0 mm 4 mps 744 mmHg 74%
    18:00 +25°C° 0 mm 4 mps 744 mmHg 78%
    19:00 +23°C° 0 mm 4 mps 744 mmHg 83%
    20:00 +22°C° 0 mm 4 mps 744 mmHg 85%
    21:00 +21°C° 0 mm 4 mps 744 mmHg 86%
    22:00 +21°C° 0 mm 4 mps 745 mmHg 88%
    23:00 +21°C° 0 mm 4 mps 745 mmHg 87%

    24 June, Monday

    Time Temperature Precipitation Wind Pressure Humidity
    00:00 +21°C° 0 mm 4 mps 745 mmHg 86%
    01:00 +21°C° 0 mm 4 mps 745 mmHg 86%
    02:00 +20°C° 0 mm 4 mps 745 mmHg 87%
    03:00 +20°C° 0 mm 3 mps 745 mmHg 88%
    04:00 +19°C° 0 mm 3 mps 745 mmHg 90%
    05:00 +21°C° 0 mm 3 mps 746 mmHg 85%
    06:00 +22°C° 0 mm 3 mps 746 mmHg 80%
    07:00 +25°C° 0 mm 3 mps 746 mmHg 75%
    08:00 +26°C° 0 mm 3 mps 747 mmHg 71%
    09:00 +27°C° 0 mm 3 mps 747 mmHg 67%
    10:00 +28°C° 0 mm 3 mps 747 mmHg 63%
    11:00 +28°C° 0.3 mm 3 mps 747 mmHg 63%
    12:00 +29°C° 0.3 mm 4 mps 747 mmHg 63%
    13:00 +29°C° 0.3 mm 4 mps 747 mmHg 63%
    14:00 +29°C° 0.4 mm 4 mps 747 mmHg 65%
    15:00 +28°C° 0.4 mm 4 mps 747 mmHg 67%
    16:00 +27°C° 0.4 mm 4 mps 747 mmHg 69%
    17:00 +26°C° 0 mm 4 mps 747 mmHg 74%
    18:00 +25°C° 0 mm 4 mps 747 mmHg 78%
    19:00 +22°C° 0 mm 3 mps 747 mmHg 82%
    20:00 +22°C° 0 mm 3 mps 748 mmHg 85%
    21:00 +21°C° 0 mm 3 mps 748 mmHg 88%
    22:00 +20°C° 0 mm 3 mps 748 mmHg 91%
    23:00 +20°C° 0 mm 3 mps 748 mmHg 91%

    25 June, Tuesday

    Time Temperature Precipitation Wind Pressure Humidity
    00:00 +20°C° 0 mm 3 mps 748 mmHg 91%
    01:00 +20°C° 0 mm 3 mps 749 mmHg 92%
    02:00 +20°C° 0 mm 3 mps 748 mmHg 92%
    03:00 +20°C° 0 mm 3 mps 748 mmHg 91%
    04:00 +20°C° 0 mm 3 mps 748 mmHg 91%
    05:00 +21°C° 0 mm 3 mps 749 mmHg 86%
    06:00 +22°C° 0 mm 3 mps 749 mmHg 80%
    07:00 +25°C° 0 mm 3 mps 750 mmHg 75%
    08:00 +26°C° 0 mm 3 mps 750 mmHg 71%
    09:00 +27°C° 0 mm 3 mps 750 mmHg 68%
    10:00 +27°C° 0 mm 4 mps 750 mmHg 65%
    11:00 +28°C° 0 mm 4 mps 750 mmHg 64%
    12:00 +28°C° 0 mm 4 mps 750 mmHg 63%
    13:00 +28°C° 0 mm 4 mps 750 mmHg 62%
    14:00 +28°C° 0 mm 4 mps 750 mmHg 63%
    15:00 +28°C° 0 mm 4 mps 750 mmHg 64%
    16:00 +27°C° 0 mm 4 mps 749 mmHg 65%
    17:00 +26°C° 0 mm 4 mps 750 mmHg 71%
    18:00 +23°C° 0 mm 4 mps 750 mmHg 76%
    19:00 +22°C° 0 mm 3 mps 750 mmHg 82%
    20:00 +21°C° 0 mm 3 mps 750 mmHg 84%
    21:00 +21°C° 0 mm 3 mps 750 mmHg 86%
    22:00 +20°C° 0 mm 3 mps 751 mmHg 88%
    23:00 +20°C° 0 mm 3 mps 750 mmHg 89%
    Show more